Regional Weather Roundup
Issued by NWS

Home | Current Version | Previous Version | Text Only | Print | Product List | Glossary Off
Versions: 1 2 3 4 5 6 7 8 9 10 11 12 13 14 15 16 17 18 19 20 21 22 23 24 25 26 27 28 29 30 31 32 33 34 35 36 37 38 39 40 41 42 43 44 45 46 47 48 49 50

000
ASUS43 KOAX 060002
RWRNE

WEATHER ROUNDUP FOR NEBRASKA
NATIONAL WEATHER SERVICE OMAHA NE
600 PM CST THU MAR 05 2015

NOTES: SATELLITE DATA IS BEING USED TO AUGMENT CLOUD COVER ABOVE
       12000 FEET.
       "FAIR" INDICATES FEW OR NO CLOUDS BELOW 12,000 FEET WITH NO
       SIGNIFICANT WEATHER AND/OR OBSTRUCTIONS TO VISIBILITY.

  * THESE STATIONS DO NOT REPORT WEATHER SUCH AS RAIN...SNOW OR FOG.

NEZ001>004-019>022-054>056-060100-
NEBRASKA PANHANDLE

CITY           SKY/WX    TMP DP  RH WIND       PRES   REMARKS
SCOTTSBLUFF    CLEAR     44  13  28 W14       30.20R
6HR MIN TEMP:  38; 6HR MAX TEMP:  48;

ALLIANCE       CLEAR     43  12  28 W18       30.17R
6HR MIN TEMP:  39; 6HR MAX TEMP:  46;

CHADRON        CLEAR     39  22  50 W15       30.17R WCI  31
6HR MIN TEMP:  27; 6HR MAX TEMP:  42;

KIMBALL        PTCLDY    40  16  37 NW13      30.19S WCI  33
SIDNEY         PTCLDY    41  14  33 W17G26    30.20R
6HR MIN TEMP:  38; 6HR MAX TEMP:  45;

$$

NEZ057>060-069>072-079>082-060100-
SOUTHWEST NEBRASKA

CITY           SKY/WX    TMP DP  RH WIND       PRES   REMARKS
NORTH PLATTE   CLEAR     47   8  20 W12       30.18R
6HR MIN TEMP:  34; 6HR MAX TEMP:  50;

IMPERIAL         N/A     46  12  25 W8        30.21R
6HR MIN TEMP:  39; 6HR MAX TEMP:  48;

LEXINGTON      PTCLDY    44  10  25 S12       30.21F
MCCOOK         MOCLDY    50  13  22 W12       30.22R
6HR MIN TEMP:  35; 6HR MAX TEMP:  52;

$$

NEZ005>010-023>029-035>040-094-060100-
NORTH CENTRAL NEBRASKA

CITY           SKY/WX    TMP DP  RH WIND       PRES   REMARKS
VALENTINE      CLOUDY    43   9  24 W7        30.14S
6HR MIN TEMP:  32; 6HR MAX TEMP:  47;

AINSWORTH      MOCLDY    42   8  25 W5        30.15S
BROKEN BOW     CLEAR     42  13  30 SE10      30.18F
6HR MIN TEMP:  28; 6HR MAX TEMP:  45;

ORD            CLEAR     40   9  28 S12       30.20F WCI  33
6HR MIN TEMP:  26; 6HR MAX TEMP:  42;

$$

NEZ041-046>049-061>064-073>077-083>087-060100-
SOUTH CENTRAL NEBRASKA

CITY           SKY/WX    TMP DP  RH WIND       PRES   REMARKS
GRAND ISLAND   PTCLDY    39   7  26 S10       30.27F WCI  32
6HR MIN TEMP:  25; 6HR MAX TEMP:  40;

HASTINGS       MOCLDY    40   4  22 S9        30.27F WCI  34
6HR MIN TEMP:  27; 6HR MAX TEMP:  41;

HEBRON         CLEAR     36   3  25 S6        30.35F WCI  31
KEARNEY *      MOCLDY    39  10  30 S13       30.25F WCI  32
YORK           CLEAR     36   7  30 S12       30.31F WCI  27
$$

NEZ011>018-030>034-042>045-060100-
NORTHEAST NEBRASKA

CITY           SKY/WX    TMP DP  RH WIND       PRES   REMARKS
NORFOLK        CLEAR     34   7  32 S10       30.27F WCI  26
6HR MIN TEMP:  25; 6HR MAX TEMP:  36;

BLAIR          CLEAR     31   6  34 S13       30.37S WCI  21
COLUMBUS *     PTCLDY    36   7  30 S10       30.32F WCI  28
FREMONT        CLEAR     32   6  32 S10       30.37R WCI  24
TEKAMAH        CLEAR     31   6  35 S15       30.38F WCI  20
6HR MIN TEMP:  21; 6HR MAX TEMP:  33; 6HR PCP: TRACE;

WAYNE          CLEAR     32   5  31 S12       30.31F WCI  23
$$

NEZ050>053-065>068-078-088>093-060100-
SOUTHEAST NEBRASKA

CITY           SKY/WX    TMP DP  RH WIND       PRES   REMARKS
LINCOLN        CLEAR     33   7  33 S13       30.38F WCI  24
6HR MIN TEMP:  23; 6HR MAX TEMP:  35;

OMAHA EPPLEY   PTCLDY    30   5  34 S14       30.41F WCI  19
6HR MIN TEMP:  19; 6HR MAX TEMP:  31;

FALLS CITY     CLEAR     30   5  34 S8        30.44F WCI  22
6HR MIN TEMP:  22; 6HR MAX TEMP:  33;

NEBRASKA CITY  CLEAR     30  -2  25 S9        30.42S WCI  21
$$

NEZ044-045-051>053-067-060100-
OMAHA AREA

CITY           SKY/WX    TMP DP  RH WIND       PRES   REMARKS
OMAHA EPPLEY   PTCLDY    30   5  34 S14       30.41F WCI  19
6HR MIN TEMP:  19; 6HR MAX TEMP:  31;

BLAIR          CLEAR     31   6  34 S13       30.37S WCI  21
FREMONT        CLEAR     32   6  32 S10       30.37R WCI  24
OFFUTT AFB     CLEAR     29   5  36 S10       30.40S WCI  20
WAHOO          FAIR      32   3  29 S10       30.37S WCI  24
$$



USA.gov is the U.S. government's official web portal to all federal, state and local government web resources and services.